• In Österreich
  • Länderverzeichnis
  • Für 7 Tage
  • Wassertemperatur
  • Satellitenkarten
  • Wetterkarte
  • News
  • Widgets
  • user-avatar
    Anmelden

    Stündliche Wetter Bindura

    Heute, 23 Februar, Freitag

    Zeit Temperatur Niederschläge Wind Luftdruck Luftfeuchtigkeit
    00:00 +20°C° 0 mm 1 m/S 666 mmHg 96%
    01:00 +20°C° 0 mm 1 m/S 666 mmHg 97%
    02:00 +20°C° 0 mm 1 m/S 666 mmHg 97%
    03:00 +17°C° 0 mm 0 m/S 666 mmHg 97%
    04:00 +17°C° 0 mm 0 m/S 665 mmHg 97%
    05:00 +17°C° 0 mm 0 m/S 665 mmHg 97%
    06:00 +20°C° 0 mm 1 m/S 666 mmHg 94%
    07:00 +21°C° 0 mm 1 m/S 666 mmHg 90%
    08:00 +23°C° 0 mm 2 m/S 667 mmHg 86%
    09:00 +24°C° 0 mm 2 m/S 667 mmHg 81%
    10:00 +25°C° 0 mm 2 m/S 667 mmHg 75%
    11:00 +26°C° 0 mm 3 m/S 667 mmHg 70%
    12:00 +27°C° 0 mm 3 m/S 666 mmHg 67%
    13:00 +28°C° 0 mm 2 m/S 666 mmHg 64%
    14:00 +28°C° 0 mm 2 m/S 665 mmHg 61%
    15:00 +28°C° 0,1 mm 2 m/S 665 mmHg 64%
    16:00 +28°C° 0,1 mm 2 m/S 665 mmHg 67%
    17:00 +27°C° 0,1 mm 2 m/S 664 mmHg 70%
    18:00 +26°C° 0 mm 2 m/S 664 mmHg 76%
    19:00 +24°C° 0 mm 1 m/S 664 mmHg 82%
    20:00 +22°C° 0 mm 1 m/S 664 mmHg 88%
    21:00 +22°C° 0 mm 1 m/S 665 mmHg 89%
    22:00 +21°C° 0 mm 1 m/S 665 mmHg 90%
    23:00 +21°C° 0 mm 1 m/S 665 mmHg 91%

    Morgen, 24 Februar, Samstag

    Zeit Temperatur Niederschläge Wind Luftdruck Luftfeuchtigkeit
    00:00 +21°C° 0 mm 1 m/S 665 mmHg 92%
    01:00 +20°C° 0 mm 1 m/S 665 mmHg 93%
    02:00 +20°C° 0 mm 1 m/S 665 mmHg 94%
    03:00 +18°C° 0 mm 0 m/S 665 mmHg 95%
    04:00 +18°C° 0 mm 0 m/S 665 mmHg 95%
    05:00 +17°C° 0 mm 0 m/S 665 mmHg 96%
    06:00 +21°C° 0 mm 1 m/S 665 mmHg 91%
    07:00 +22°C° 0 mm 1 m/S 666 mmHg 86%
    08:00 +23°C° 0 mm 2 m/S 667 mmHg 82%
    09:00 +25°C° 0 mm 2 m/S 667 mmHg 77%
    10:00 +26°C° 0 mm 2 m/S 667 mmHg 71%
    11:00 +28°C° 0 mm 3 m/S 667 mmHg 66%
    12:00 +28°C° 0,3 mm 3 m/S 666 mmHg 66%
    13:00 +29°C° 0,3 mm 3 m/S 666 mmHg 66%
    14:00 +29°C° 0,3 mm 3 m/S 665 mmHg 66%
    15:00 +28°C° 0,4 mm 3 m/S 665 mmHg 69%
    16:00 +28°C° 0,4 mm 2 m/S 664 mmHg 71%
    17:00 +27°C° 0,4 mm 2 m/S 664 mmHg 74%
    18:00 +26°C° 0,3 mm 1 m/S 664 mmHg 80%
    19:00 +24°C° 0,3 mm 1 m/S 665 mmHg 86%
    20:00 +20°C° 0,3 mm 0 m/S 665 mmHg 91%
    21:00 +20°C° 0,2 mm 0 m/S 665 mmHg 92%
    22:00 +20°C° 0,2 mm 0 m/S 665 mmHg 93%
    23:00 +19°C° 0,2 mm 0 m/S 666 mmHg 94%

    übermorgen, 25 Februar, Sonntag

    Zeit Temperatur Niederschläge Wind Luftdruck Luftfeuchtigkeit
    00:00 +19°C° 0 mm 0 m/S 665 mmHg 94%
    01:00 +19°C° 0 mm 0 m/S 665 mmHg 94%
    02:00 +19°C° 0 mm 0 m/S 665 mmHg 95%
    03:00 +18°C° 0 mm 0 m/S 665 mmHg 95%
    04:00 +18°C° 0 mm 0 m/S 665 mmHg 95%
    05:00 +18°C° 0 mm 0 m/S 665 mmHg 95%
    06:00 +19°C° 0 mm 0 m/S 665 mmHg 91%
    07:00 +23°C° 0 mm 1 m/S 666 mmHg 87%
    08:00 +24°C° 0 mm 1 m/S 667 mmHg 83%
    09:00 +25°C° 0,4 mm 2 m/S 667 mmHg 78%
    10:00 +27°C° 0,4 mm 2 m/S 667 mmHg 73%
    11:00 +28°C° 0,4 mm 3 m/S 667 mmHg 68%
    12:00 +28°C° 0,4 mm 3 m/S 667 mmHg 67%
    13:00 +29°C° 0,4 mm 3 m/S 666 mmHg 67%
    14:00 +29°C° 0,4 mm 3 m/S 665 mmHg 66%
    15:00 +28°C° 0,6 mm 2 m/S 665 mmHg 69%
    16:00 +28°C° 0,6 mm 2 m/S 665 mmHg 73%
    17:00 +27°C° 0,6 mm 2 m/S 664 mmHg 76%
    18:00 +26°C° 1 mm 2 m/S 665 mmHg 81%
    19:00 +24°C° 1 mm 1 m/S 665 mmHg 85%
    20:00 +23°C° 1 mm 1 m/S 665 mmHg 90%
    21:00 +23°C° 1,9 mm 1 m/S 665 mmHg 90%
    22:00 +22°C° 1,9 mm 1 m/S 666 mmHg 90%
    23:00 +20°C° 1,9 mm 0 m/S 666 mmHg 91%

    26 Februar, Montag

    Zeit Temperatur Niederschläge Wind Luftdruck Luftfeuchtigkeit
    00:00 +20°C° 0,5 mm 0 m/S 665 mmHg 91%
    01:00 +19°C° 0,5 mm 0 m/S 665 mmHg 92%
    02:00 +19°C° 0,5 mm 0 m/S 664 mmHg 92%
    03:00 +19°C° 1 mm 0 m/S 665 mmHg 92%
    04:00 +19°C° 1 mm 0 m/S 665 mmHg 93%
    05:00 +21°C° 1 mm 1 m/S 665 mmHg 94%
    06:00 +21°C° 1,6 mm 1 m/S 666 mmHg 93%
    07:00 +21°C° 1,6 mm 2 m/S 666 mmHg 93%
    08:00 +21°C° 1,6 mm 3 m/S 667 mmHg 92%
    09:00 +21°C° 1,1 mm 3 m/S 667 mmHg 92%
    10:00 +22°C° 1,1 mm 3 m/S 667 mmHg 91%
    11:00 +22°C° 1,1 mm 3 m/S 667 mmHg 91%
    12:00 +24°C° 0,7 mm 3 m/S 667 mmHg 88%
    13:00 +25°C° 0,7 mm 3 m/S 666 mmHg 85%
    14:00 +26°C° 0,7 mm 3 m/S 666 mmHg 82%
    15:00 +25°C° 0,9 mm 3 m/S 666 mmHg 84%
    16:00 +25°C° 0,9 mm 3 m/S 665 mmHg 87%
    17:00 +24°C° 0,9 mm 3 m/S 665 mmHg 89%
    18:00 +22°C° 0,2 mm 3 m/S 666 mmHg 91%
    19:00 +21°C° 0,2 mm 2 m/S 666 mmHg 94%
    20:00 +20°C° 0,2 mm 2 m/S 667 mmHg 96%
    21:00 +21°C° 0,3 mm 1 m/S 667 mmHg 96%
    22:00 +21°C° 0,3 mm 1 m/S 667 mmHg 97%
    23:00 +21°C° 0,3 mm 1 m/S 667 mmHg 97%

    27 Februar, Dienstag

    Zeit Temperatur Niederschläge Wind Luftdruck Luftfeuchtigkeit
    00:00 +21°C° 0,6 mm 1 m/S 667 mmHg 97%
    01:00 +21°C° 0,6 mm 1 m/S 667 mmHg 97%
    02:00 +20°C° 0,6 mm 1 m/S 666 mmHg 98%
    03:00 +20°C° 0,6 mm 1 m/S 667 mmHg 98%
    04:00 +20°C° 0,6 mm 1 m/S 667 mmHg 97%
    05:00 +20°C° 0,6 mm 1 m/S 667 mmHg 97%
    06:00 +21°C° 0,4 mm 1 m/S 667 mmHg 97%
    07:00 +21°C° 0,4 mm 1 m/S 668 mmHg 96%
    08:00 +20°C° 0,4 mm 2 m/S 668 mmHg 95%
    09:00 +20°C° 0,5 mm 2 m/S 668 mmHg 95%
    10:00 +20°C° 0,5 mm 2 m/S 668 mmHg 94%
    11:00 +21°C° 0,5 mm 2 m/S 668 mmHg 94%
    12:00 +21°C° 0,3 mm 2 m/S 667 mmHg 92%
    13:00 +23°C° 0,3 mm 2 m/S 667 mmHg 89%
    14:00 +24°C° 0,3 mm 2 m/S 666 mmHg 87%
    15:00 +24°C° 0,2 mm 2 m/S 666 mmHg 87%
    16:00 +24°C° 0,2 mm 2 m/S 666 mmHg 87%
    17:00 +24°C° 0,2 mm 2 m/S 666 mmHg 87%
    18:00 +23°C° 0 mm 1 m/S 666 mmHg 91%
    19:00 +22°C° 0 mm 1 m/S 666 mmHg 94%
    20:00 +21°C° 0 mm 1 m/S 666 mmHg 97%
    21:00 +21°C° 0 mm 1 m/S 667 mmHg 98%
    22:00 +21°C° 0 mm 1 m/S 667 mmHg 98%
    23:00 +18°C° 0 mm 0 m/S 667 mmHg 98%

    28 Februar, Mittwoch

    Zeit Temperatur Niederschläge Wind Luftdruck Luftfeuchtigkeit
    00:00 +18°C° 0,1 mm 0 m/S 667 mmHg 98%
    01:00 +18°C° 0,1 mm 0 m/S 667 mmHg 98%
    02:00 +18°C° 0,1 mm 0 m/S 666 mmHg 98%
    03:00 +18°C° 0,1 mm 0 m/S 667 mmHg 98%
    04:00 +18°C° 0,1 mm 0 m/S 667 mmHg 98%
    05:00 +20°C° 0,1 mm 1 m/S 667 mmHg 98%
    06:00 +21°C° 0 mm 1 m/S 667 mmHg 96%
    07:00 +21°C° 0 mm 1 m/S 668 mmHg 95%
    08:00 +22°C° 0 mm 1 m/S 668 mmHg 93%
    09:00 +23°C° 0,2 mm 1 m/S 668 mmHg 88%
    10:00 +24°C° 0,2 mm 2 m/S 668 mmHg 84%
    11:00 +25°C° 0,2 mm 2 m/S 668 mmHg 79%
    12:00 +26°C° 0,5 mm 2 m/S 667 mmHg 78%
    13:00 +26°C° 0,5 mm 2 m/S 667 mmHg 76%
    14:00 +27°C° 0,5 mm 2 m/S 666 mmHg 74%
    15:00 +27°C° 0,3 mm 2 m/S 666 mmHg 75%
    16:00 +27°C° 0,3 mm 2 m/S 666 mmHg 76%
    17:00 +26°C° 0,3 mm 2 m/S 665 mmHg 78%
    18:00 +25°C° 0,5 mm 1 m/S 665 mmHg 83%
    19:00 +24°C° 0,5 mm 1 m/S 666 mmHg 88%
    20:00 +22°C° 0,5 mm 1 m/S 666 mmHg 94%
    21:00 +22°C° 0,9 mm 1 m/S 666 mmHg 95%
    22:00 +22°C° 0,9 mm 1 m/S 666 mmHg 96%
    23:00 +21°C° 0,9 mm 1 m/S 666 mmHg 97%
    Mehr zeigen